Flight Information

DEPARTURE
JACKSON, WY
Elevation:
6450
Runways:
1/19 - 6300x150 - ASPH-G
ATIS:
120.625
Ground:
124.55
Tower:
JACKSON TOWER 118.075
DESTINATION
,
Elevation:
TPA:
1000 (est.)


6291.1 NM75° True-15° Var60° HDG

Flight Plan:
(click to file on line)

1. Type
2. Aircraft Identification
3. Aircraft Type / Special Equipment
4. True Airspeed
kts
5. Departure Airport
(ICAO code)
6. Arriving Airport
(ICAO code)
7. Cruising Altitude
ft
8. Alternate Airport
(ICAO code)
9. Route of Flight
10. Remarks


00:00:00 Departure ATIS: Destination ATIS:

Clearance Limit:
Route:
Altitude: Expect in minutes
Frequency:
Transponder: (7500 Hijack / 7600 Lost Comms / 7700 Emergency)


KJAC 101556Z 21006KT 10SM CLR 18/07 A3024 RMK AO2 SLP188 T01780067
Time: 2020-07-10T15:56:00Z
1594399451
Winds: 210 @ 6 kts
Visibility: 10.0 sm
Clouds (AGL): CLR
Temperature: 17.8 C
Dew Point: 6.7 C
Pressure: 30.239174 in Hgbr


Notes:

Data extracted from FAA Digital Chart Supplement. Effective: 0901Z Thursday, May 21, 2020 to 0901Z Thursday, Jul 16, 2020
Current ATIS data is provided courtisy of PilotEdge.